Location: Palomar Mountain Lodge
(33.3110°N, 116.8495°W)
Time: 20:39:43
(UTC-07:00)

Daily predictions for brighter satellites

Satellite Brightness Start Highest point End
(mag) Time Altitude Azimuth Time Altitude Azimuth Time Altitude Azimuth
Cosmos 1850 Rocket 4.2 20:18:19 10° S 20:23:17 51° ESE 20:28:18 10° NNE
USA 234 4.3 20:19:54 10° ENE 20:24:36 21° ESE 20:29:17 10° SSE
Meteor 1-24 Rocket 3.8 20:18:44 10° S 20:24:38 79° E 20:30:24 10° N
Cosmos 2221 4.0 20:21:24 10° NNE 20:24:42 21° ENE 20:28:00 10° SE
Cosmos 1727 Rocket 4.1 20:23:42 10° S 20:29:54 64° E 20:36:10 10° NNE
Cosmos 2219 Rocket 3.5 20:27:01 10° NW 20:32:16 40° WSW 20:37:27 10° S
Abrixas 3.7 20:33:19 10° S 20:35:15 18° SE 20:37:12 10° E
Atlas Centaur 2 1.6 20:32:48 10° W 20:36:34 43° SSW 20:39:58 10° ESE
CZ-4B DEB 4.2 20:37:07 10° ESE 20:39:22 20° ENE 20:41:37 10° NNE
Okean 3 Rocket 3.9 20:39:11 10° SSE 20:43:30 48° E 20:47:48 10° NNE
Cosmos 2333 Rocket 3.6 20:41:44 10° NW 20:46:52 37° WSW 20:51:57 10° S
Cosmos 1741 Rocket 4.1 20:44:06 10° SSW 20:49:25 89° WNW 20:54:45 10° NNE
SJ-11-01 4.4 20:46:37 10° SSE 20:51:15 60° ENE 20:55:56 10° N
H-2A R/B 4.2 20:50:28 10° ENE 20:51:42 11° ENE 20:52:55 10° NE
NOSS 3-4 (A) 4.0 20:44:57 10° NNW 20:52:10 84° WSW 20:59:47 10° SSE
NOSS 3-4 (C) 4.0 20:45:03 10° NNW 20:52:16 85° WSW 20:59:53 10° SSE
Spot 2 Rocket 4.2 20:47:22 10° S 20:52:17 55° W 20:57:16 10° NNW
Helios 1B rocket 2.4 20:48:35 10° NNE 20:52:43 72° ESE 20:56:49 10° S
YAOGAN 6 3.4 20:49:54 12° SE 20:52:49 35° ENE 20:56:12 10° N
Cosmos 2227 4.4 20:48:25 10° S 20:53:53 48° ESE 20:59:20 10° NNE
Cosmos 1818 3.7 20:55:23 10° NNW 21:00:46 61° ENE 21:05:03 16° SE
Meteor 2-1 Rocket 4.3 20:55:59 10° N 21:01:47 85° W 21:07:26 10° S
Helios 1A 2.9 20:58:06 10° SSE 21:02:12 77° ENE 21:06:21 10° N
GPS 2-05 Rocket1 2.4 21:01:48 10° WSW 21:04:50 63° SSE 21:07:28 13° E
Cosmos 1726 4.0 21:03:07 10° NE 21:05:11 14° ENE 21:06:02 14° E
Delta 2 Rocket 4.1 21:00:29 10° WSW 21:06:01 69° SSE 21:11:47 10° ENE
USA 186 4.0 21:10:58 10° SW 21:12:19 14° W 21:13:39 10° WNW
Cosmos 2263 Rocket 3.4 21:10:47 18° SE 21:12:41 21° E 21:16:47 10° NE
Cosmos 1356 Rocket 3.4 21:09:33 10° S 21:13:46 82° E 21:18:04 10° N
ATLAS 5 CENTAUR R/B 4.0 21:10:40 10° WSW 21:14:39 28° NW 21:18:55 10° N
Meteor 1-29 3.3 21:11:38 10° N 21:15:03 68° WNW 21:18:28 10° SSW
Resurs 01 Rocket 3.9 21:12:06 10° SSW 21:15:33 22° W 21:19:01 10° NW
Envisat 3.7 21:12:06 10° S 21:17:02 54° W 21:22:00 10° NNW
SPOT 5 4.2 21:14:52 18° ESE 21:17:11 25° ENE 21:21:16 10° NNE
Lacrosse 5 3.2 21:14:49 10° NNW 21:19:11 28° NE 21:22:21 16° E
CZ-3B R/B 4.1 21:18:14 10° WSW 21:20:44 57° NW 21:27:38 10° NE
SL-14 R/B 4.4 21:20:15 24° ESE 21:21:09 26° E 21:24:27 10° NNE
Meteor 1-21 Rocket 4.3 21:21:25 10° S 21:27:06 83° W 21:32:43 10° N
Cosmos 220 Rocket 4.2 21:24:43 18° S 21:27:46 49° ESE 21:32:00 10° NNE
SAR-Lupe-4 3.9 21:27:26 20° S 21:29:46 63° WSW 21:33:19 10° NNW
RESURS DK-1 3.4 21:26:34 10° N 21:30:19 32° ENE 21:31:40 26° E
Cosmos 1486 Rocket 4.4 21:27:59 21° SSE 21:30:58 41° E 21:35:53 10° NNE
Cosmos 1328 4.4 21:31:45 32° ESE 21:32:41 36° E 21:36:24 10° NNE
Cosmos 2208 Rocket 4.1 21:29:19 10° NNW 21:34:40 78° WSW 21:38:16 22° S
Cosmos 1674 3.7 21:31:33 10° SSW 21:35:09 44° W 21:38:45 10° N
Cosmos 1459 Rocket 3.9 21:29:34 10° N 21:35:51 86° E 21:40:30 19° S
Cosmos 1939 Rocket 4.5 21:35:32 10° SSW 21:39:05 31° W 21:42:42 10° NW
Cosmos 2100 Rocket 4.2 21:38:35 10° N 21:44:53 74° W 21:50:01 16° S
MetOp-A 4.1 21:42:06 28° SSE 21:44:58 76° ENE 21:50:19 10° N
Cosmos 1242 Rocket 3.3 21:42:38 10° NNW 21:46:14 51° W 21:48:02 26° SSW
SPOT 1/Viking Rocket 4.3 21:44:45 29° ESE 21:46:23 37° ENE 21:51:04 10° N
Terra 3.6 21:46:09 16° ENE 21:46:55 16° ENE 21:49:47 10° NNE
Meteor 2-2 Rocket 4.5 21:42:31 10° N 21:48:14 56° E 21:50:44 33° SE
Cosmos 1603 3.8 21:43:01 10° NNW 21:48:37 62° ENE 21:50:55 35° SE
ARGOS 3.2 21:46:57 32° SE 21:49:22 63° ENE 21:54:43 10° N
Cosmos 2123 Rocket 3.9 21:45:42 21° S 21:49:54 72° E 21:56:04 10° N
Cosmos 1408 Rocket 4.0 21:47:39 14° SSW 21:51:10 58° W 21:55:25 10° N
Cosmos 1908 4.4 21:49:09 10° NNW 21:52:45 38° W 21:54:55 20° SSW
Cosmos 2173 Rocket 4.2 21:46:45 10° NNW 21:52:52 69° W 21:57:30 19° S
Cosmos 332 Rocket 3.9 21:50:10 10° N 21:55:01 61° ENE 21:56:24 43° SE
Cosmos 2061 Rocket 4.2 21:49:08 10° N 21:55:30 73° W 22:00:00 21° S
Cosmos 2151 3.6 21:56:00 37° E 21:56:00 37° E 21:59:55 10° NNE
Tiangong 1 3.6 22:00:10 10° NNW 22:01:42 14° N 22:02:40 12° NNE
Cosmos 1943 3.9 21:57:15 10° N 22:02:31 38° ENE 22:04:01 33° E
ERS-1 Rocket 3.6 22:01:49 25° SSW 22:04:32 52° W 22:09:27 10° NNW
SL-16 R/B 3.8 22:00:10 10° NW 22:04:54 28° WSW 22:08:51 13° SSW
Cosmos 468 Rocket 3.9 22:01:51 10° NNW 22:06:59 82° WSW 22:08:36 45° S
USA 234 3.3 22:01:23 10° NE 22:07:56 82° NW 22:14:28 10° SW
Cosmos 1500 Rocket 3.4 22:11:28 64° SSE 22:12:05 77° E 22:16:32 10° N
Cosmos 1503 Rocket 4.0 22:16:53 55° ESE 22:17:14 57° ESE 22:22:18 10° NNE
Cosmos 1725 Rocket 3.9 22:11:11 10° N 22:17:26 90° WSW 22:19:47 41° S
Cosmos 1703 4.0 22:23:54 43° NE 22:23:54 43° NE 22:26:51 10° NNE
CARTOSAT-1 4.5 22:23:32 35° ENE 22:23:32 35° ENE 22:27:05 10° N
Atlas Centaur 2 3.7 22:22:32 10° WSW 22:22:36 10° WSW 22:22:36 10° WSW
Sakura Rocket 4.1 22:18:05 10° W 22:25:59 55° S 22:26:59 50° SSE
H-2A R/B 2.1 22:29:11 57° S 22:30:17 82° WSW 22:35:43 10° NNW
IGS 5A 4.4 22:32:08 38° NE 22:32:08 38° NE 22:35:21 10° N
Cosmos 1626 3.1 22:33:19 42° NNE 22:33:19 42° NNE 22:35:52 10° N
ERBS 3.7 22:30:10 10° NNW 22:32:23 37° NNW 22:32:23 37° NNW
Cosmos 1328 Rocket 4.3 22:33:36 10° NNW 22:37:42 44° W 22:38:07 42° WSW
Milstar 3 Cent rocket 4.4 22:30:16 10° W 22:38:03 40° SSW 22:41:28 35° SSE
Cosmos 1726 4.0 22:37:29 10° NW 22:40:26 23° W 22:40:39 23° W
Cosmos 1151 Rocket 3.1 22:36:18 10° N 22:40:19 74° NNW 22:40:19 74° NNW
CZ-4C R/B 3.1 22:45:00 33° ENE 22:45:00 33° ENE 22:48:27 10° NE
H-2A R/B 2.9 22:44:58 40° NE 22:44:58 40° NE 22:48:11 10° N
Cosmos 371 Rocket 3.8 22:39:38 10° NNW 22:44:17 49° WSW 22:44:36 48° WSW
Cosmos 1515 Rocket 4.1 22:40:51 10° NNW 22:44:59 52° W 22:44:59 52° W
Delta 2 Rocket 4.3 22:43:16 10° W 22:49:01 72° N 22:51:00 42° ENE
SPOT 5 4.3 22:54:06 26° WSW 22:55:04 28° W 22:59:23 10° NW
Cosmos 2263 Rocket 3.3 22:52:22 17° SW 22:56:14 40° WNW 23:01:29 10° N
Cosmos 2058 4.2 23:00:15 36° WNW 23:00:15 36° WNW 23:04:05 10° NNW
Lacrosse 5 2.8 22:57:31 10° NW 23:01:33 37° WSW 23:01:33 37° WSW
Meteor 1-27 4.5 22:56:45 10° NNW 23:02:26 60° W 23:03:05 56° WSW
Cosmos 2233 Rocket 4.3 23:01:53 10° NNW 23:07:53 55° W 23:08:57 49° SW
Cosmos 841 Rocket 4.3 23:10:46 10° NNW 23:15:25 42° W 23:15:25 42° W
Cosmos 1455 4.2 23:20:29 10° NNW 23:22:25 27° NNW 23:22:25 27° NNW
Terra 2.9 23:25:03 39° WNW 23:25:03 39° WNW 23:28:47 10° NNW
Cosmos 1844 Rocket 3.2 23:30:40 50° NE 23:30:40 50° NE 23:34:47 10° NNE
Cosmos 1513 Rocket 4.5 23:38:52 10° N 23:44:34 73° NW 23:44:34 73° NW
